STARLINK-1042, 44747

Orbit data source: Space-Track

STARLINK-1042, 44747 is a payload satellite owned by SpaceX/Seattle (US) in LEO that was launched on Mon, 11 Nov 2019 UTC via an FALCON 9 launch vehicle from the Air Force Eastern Test Range (AFETR). Payload-class satellites include a variety of spacecraft equipped with specific instruments for various scientific and technological missions. These include communications satellites like Starlink; space stations such as the ISS; scientific satellites like the Hubble; Earth observation satellites from companies like Planet Labs, Umbra, and HawkEye 360; GPS; miniature CubeSats for education and research; and military/defense satellites.

Loading next visibility...
Identifier
44747, 2019-074AL
Orbit
LEO
Country
Flag of USUS
Related business
Manufacturer
SpaceX/Seattle
Mission
Partially operational Commercial Communications
Bus & Motor
STARLINK, Unknown motor
Mass
260 kg wet, ~248 kg dry
Launch date (UTC)
2019-11-11 (7 years ago)
Launch vehicle
FALCON 9
Launch site
Air Force Eastern Test Range (AFETR)
Object type
Payload
Rocket body
Debris
Shape & HBR
Box + 1 Pan, 10.1 m
Radar Cross Section
13.562 m², Large (>1 m²)

Expand to show TLE details & history
Last TLE update: 13 hours ago

TLE from 13 hours ago
0 STARLINK-1042
1 44747U 19074AL  26145.10295476  .00022836  00000-0  36140-3 0  9997
2 44747  53.0418  87.0886 0003576  62.0383 298.0988 15.53365704361934
Epoch: 2026-05-25T02:28Z
TLE epoch observation values (Epoch: 2026-05-25T02:28:15.291Z)
Latitude
-0°
Longitude
167.32933°
Altitude
406.661 km
Speed
7.669 km/s
True Right ascension
05h 48m 21s
True Declination
0° 00' 00"
Sunlit
Object was in daylight at epoch
Visualization orbit readout
Latitude
Unknown
Longitude
Unknown
Altitude
Unknown
Speed
Unknown
Apparent Right ascension
Unknown
Apparent Declination
Unknown
Sunlit
N/A
Visualization observer readout
Local Sidereal Time
00:28:29
Azimuth
Unknown
Elevation
Unknown
Doppler factor
Unknown
Orbital elements
Apogee altitude
409.612 km
Perigee altitude
404.759 km
Semi-major axis
6,785.323 km
Eccentricity
0.00036
Inclination
53.0418°
RAAN
87.0886°
Arg. of periapsis
62.0383°
True anomaly
298.06264°
Mean anomaly
298.0988°
Eccentric anomaly
298.08072°
Mean motion
3.88318 °/min
Orbital period
92.71 mins
BSTAR
0.0003614
Loading maneuver chart data...
Computing Atmospheric mass density...

Documentation

Showing up to 5 results
|